This is the latest recevied weather packets stored in our database for station/object SQ6PCH-10. If no packets are shown the sender has not sent any weather packets the latest 10 day(s).
| Time | Temp. | Humidity | Pressure | Rain* | Wind** | Luminosity | Snow |
|---|---|---|---|---|---|---|---|
| 1777648053 | 26.11° C | 19% | 1010.5 hPa | - | - | - | - |
| 1777647452 | 26.67° C | 19% | 1010.5 hPa | - | - | - | - |
| 1777646852 | 27.22° C | 18% | 1010.6 hPa | - | - | - | - |
| 1777646252 | 27.22° C | 19% | 1010.7 hPa | - | - | - | - |
| 1777645652 | 26.67° C | 18% | 1010.6 hPa | - | - | - | - |
| 1777645052 | 28.33° C | 17% | 1010.8 hPa | - | - | - | - |
| 1777644452 | 26.67° C | 19% | 1010.8 hPa | - | - | - | - |
| 1777643851 | 27.78° C | 18% | 1011 hPa | - | - | - | - |
| 1777643251 | 27.22° C | 17% | 1010.9 hPa | - | - | - | - |
| 1777642651 | 27.22° C | 17% | 1011 hPa | - | - | - | - |
| 1777642051 | 28.33° C | 17% | 1011.1 hPa | - | - | - | - |
| 1777641451 | 28.89° C | 17% | 1011 hPa | - | - | - | - |
| 1777640851 | 28.33° C | 17% | 1011.2 hPa | - | - | - | - |
| 1777640250 | 27.78° C | 17% | 1011.3 hPa | - | - | - | - |
| 1777639650 | 27.78° C | 18% | 1011.5 hPa | - | - | - | - |
| 1777639050 | 29.44° C | 16% | 1011.5 hPa | - | - | - | - |
| 1777638450 | 28.33° C | 16% | 1011.7 hPa | - | - | - | - |
| 1777637850 | 28.33° C | 17% | 1011.9 hPa | - | - | - | - |
| 1777637249 | 28.33° C | 16% | 1012 hPa | - | - | - | - |
| 1777636649 | 27.22° C | 18% | 1012.1 hPa | - | - | - | - |
| 1777636049 | 26.67° C | 18% | 1012.1 hPa | - | - | - | - |
| 1777635449 | 27.78° C | 17% | 1012.1 hPa | - | - | - | - |
| 1777634849 | 26.67° C | 19% | 1012.1 hPa | - | - | - | - |
| 1777634249 | 27.78° C | 17% | 1012.3 hPa | - | - | - | - |
| 1777633648 | 26.67° C | 18% | 1012.3 hPa | - | - | - | - |
* Rain since midnight (hover to see other rain measurements)
** Current wind speed in m/s (hover to see current wind gust speed)